KNE9125 HDAM-OEJN

Flight info

Callsign KNE9125
Flight time 1h 48m
Altitude 40000
Route MANDA1P MANDA UR775 SB UV790 ULONI/N0463F390 G650 RASKA/N0462F400 T513 EGMEG
Aircraft A339/H-SADE1E2E3GHIJ3J5M1P2RWXY/LB2D1

Departure

Time 2026-05-04 12:29
Airport Djibouti-Ambouli Airport (HDAM)

Arrival

Time 2026-05-04 14:18
Airport King Abdulaziz International Airport (OEJN)
Time Latitude Longitude Altitude Speed Heading
2026-05-04 12:12 11.55096 43.15130 65 ft 0 kts 272°
2026-05-04 12:19 11.55096 43.15128 65 ft 2 kts 272°
2026-05-04 12:20 11.55096 43.15116 66 ft 1 kts 271°
2026-05-04 12:20 11.55096 43.15114 65 ft 0 kts 271°
2026-05-04 12:24 11.55096 43.15113 65 ft 0 kts 268°
2026-05-04 12:24 11.55087 43.15091 65 ft 4 kts 223°
2026-05-04 12:24 11.55070 43.15087 65 ft 4 kts 187°
2026-05-04 12:25 11.55027 43.15086 65 ft 2 kts 172°
2026-05-04 12:25 11.55014 43.15099 65 ft 4 kts 118°
2026-05-04 12:25 11.54979 43.15141 65 ft 10 kts 159°
2026-05-04 12:25 11.54895 43.15145 65 ft 13 kts 179°
2026-05-04 12:26 11.54793 43.15143 65 ft 15 kts 189°
2026-05-04 12:26 11.54744 43.15070 65 ft 13 kts 268°
2026-05-04 12:26 11.54747 43.14976 65 ft 13 kts 270°
2026-05-04 12:26 11.54748 43.14877 66 ft 14 kts 270°
2026-05-04 12:27 11.54749 43.14773 65 ft 14 kts 271°
2026-05-04 12:27 11.54752 43.14666 65 ft 15 kts 271°
2026-05-04 12:27 11.54778 43.14570 65 ft 12 kts 308°
2026-05-04 12:27 11.54782 43.14520 65 ft 4 kts 204°
2026-05-04 12:28 11.54755 43.14545 65 ft 6 kts 108°
2026-05-04 12:28 11.54753 43.14596 65 ft 7 kts 91°
2026-05-04 12:28 11.54750 43.14750 65 ft 50 kts 91°
2026-05-04 12:28 11.54739 43.15323 66 ft 110 kts 91°
2026-05-04 12:29 11.54721 43.16278 88 ft 155 kts 94°
2026-05-04 12:29 11.54705 43.17372 646 ft 153 kts 90°
2026-05-04 12:29 11.54804 43.18373 1431 ft 137 kts 68°
2026-05-04 12:29 11.55438 43.19069 1845 ft 142 kts 29°
2026-05-04 12:30 11.56443 43.19310 2053 ft 157 kts
2026-05-04 12:30 11.57574 43.19291 2375 ft 171 kts 357°
2026-05-04 12:30 11.58822 43.19229 2687 ft 186 kts 358°
2026-05-04 12:30 11.60162 43.19197 2997 ft 203 kts 359°
2026-05-04 12:31 11.61640 43.19196 3340 ft 221 kts
2026-05-04 12:31 11.63233 43.19220 3733 ft 239 kts
2026-05-04 12:31 11.64960 43.19260 4138 ft 257 kts
2026-05-04 12:31 11.66781 43.19309 4702 ft 268 kts
2026-05-04 12:32 11.68626 43.19363 5470 ft 271 kts
2026-05-04 12:32 11.72405 43.19478 6998 ft 276 kts
2026-05-04 12:32 11.74334 43.19538 7754 ft 279 kts
2026-05-04 12:33 11.76271 43.19598 8505 ft 282 kts
2026-05-04 12:33 11.78207 43.19658 9238 ft 285 kts
2026-05-04 12:33 11.80210 43.19706 9979 ft 288 kts 358°
2026-05-04 12:33 11.82146 43.19272 10562 ft 296 kts 335°
2026-05-04 12:34 11.83841 43.18000 10903 ft 313 kts 312°
2026-05-04 12:34 11.85276 43.16274 11451 ft 323 kts 309°
2026-05-04 12:34 11.86697 43.14485 12178 ft 327 kts 309°
2026-05-04 12:34 11.88147 43.12673 12916 ft 330 kts 309°
2026-05-04 12:35 11.89606 43.10873 13630 ft 333 kts 310°
2026-05-04 12:35 11.91085 43.09063 14333 ft 337 kts 310°
2026-05-04 12:35 11.92597 43.07218 15035 ft 340 kts 310°
2026-05-04 12:35 11.94244 43.05510 15710 ft 344 kts 321°
2026-05-04 12:36 11.96245 43.04155 16393 ft 347 kts 333°
2026-05-04 12:36 11.98467 43.03164 17077 ft 351 kts 338°
2026-05-04 12:36 12.00741 43.02265 17741 ft 354 kts 339°
2026-05-04 12:36 12.03021 43.01378 18388 ft 358 kts 339°
2026-05-04 12:37 12.05371 43.00457 19042 ft 361 kts 339°
2026-05-04 12:37 12.07688 42.99542 19670 ft 365 kts 339°
2026-05-04 12:37 12.10065 42.98598 20291 ft 368 kts 339°
2026-05-04 12:37 12.12437 42.97653 20886 ft 372 kts 339°
2026-05-04 12:38 12.14850 42.96689 21469 ft 375 kts 339°
2026-05-04 12:38 12.17299 42.95710 22040 ft 378 kts 339°
2026-05-04 12:38 12.19738 42.94733 22589 ft 381 kts 339°
2026-05-04 12:38 12.22219 42.93740 23130 ft 385 kts 339°
2026-05-04 12:39 12.24690 42.92750 23646 ft 388 kts 339°
2026-05-04 12:39 12.27206 42.91742 24153 ft 391 kts 339°
2026-05-04 12:39 12.29736 42.90728 24648 ft 394 kts 339°
2026-05-04 12:39 12.32305 42.89698 25135 ft 397 kts 339°
2026-05-04 12:40 12.34864 42.88672 25603 ft 400 kts 339°
2026-05-04 12:40 12.37457 42.87631 26062 ft 403 kts 339°
2026-05-04 12:40 12.40059 42.86587 26508 ft 405 kts 339°
2026-05-04 12:40 12.42708 42.85524 26946 ft 408 kts 339°
2026-05-04 12:41 12.45365 42.84457 27371 ft 411 kts 339°
2026-05-04 12:41 12.48001 42.83398 27781 ft 414 kts 339°
2026-05-04 12:41 12.50691 42.82317 28188 ft 416 kts 339°
2026-05-04 12:41 12.53400 42.81229 28586 ft 419 kts 339°
2026-05-04 12:42 12.56112 42.80139 28973 ft 421 kts 339°
2026-05-04 12:42 12.58854 42.79057 29352 ft 424 kts 340°
2026-05-04 12:42 12.61630 42.78095 29722 ft 426 kts 342°
2026-05-04 12:42 12.64478 42.77159 30086 ft 429 kts 342°
2026-05-04 12:43 12.67322 42.76233 30436 ft 431 kts 342°
2026-05-04 12:43 12.70154 42.75311 30777 ft 434 kts 342°
2026-05-04 12:43 12.73031 42.74373 31115 ft 436 kts 342°
2026-05-04 12:43 12.75909 42.73432 31443 ft 438 kts 342°
2026-05-04 12:44 12.78824 42.72478 31767 ft 440 kts 342°
2026-05-04 12:44 12.81760 42.71516 32085 ft 443 kts 342°
2026-05-04 12:44 12.84682 42.70558 32392 ft 445 kts 342°
2026-05-04 12:44 12.87623 42.69593 32693 ft 447 kts 342°
2026-05-04 12:45 12.90603 42.68616 32990 ft 449 kts 342°
2026-05-04 12:45 12.93551 42.67649 33277 ft 451 kts 342°
2026-05-04 12:45 12.96545 42.66666 33564 ft 453 kts 342°
2026-05-04 12:45 12.99532 42.65609 33836 ft 455 kts 339°
2026-05-04 12:46 13.02484 42.64381 34105 ft 457 kts 336°
2026-05-04 12:46 13.05331 42.63002 34367 ft 459 kts 333°
2026-05-04 12:46 13.08165 42.61421 34704 ft 459 kts 330°
2026-05-04 12:46 13.10862 42.59708 35083 ft 458 kts 327°
2026-05-04 12:47 13.13467 42.57837 35451 ft 457 kts 323°
2026-05-04 12:47 13.15978 42.55845 35796 ft 456 kts 322°
2026-05-04 12:47 13.18436 42.53845 36120 ft 455 kts 321°
2026-05-04 12:47 13.20904 42.51828 36430 ft 454 kts 321°
2026-05-04 12:48 13.23364 42.49819 36717 ft 454 kts 321°
2026-05-04 12:48 13.25857 42.47787 36992 ft 454 kts 321°
2026-05-04 12:48 13.28325 42.45779 37253 ft 454 kts 322°
2026-05-04 12:48 13.30805 42.43761 37510 ft 454 kts 322°
2026-05-04 12:49 13.33276 42.41752 37760 ft 454 kts 322°
2026-05-04 12:49 13.35738 42.39750 38002 ft 454 kts 322°
2026-05-04 12:49 13.38192 42.37754 38231 ft 455 kts 322°
2026-05-04 12:49 13.40685 42.35727 38432 ft 455 kts 322°
2026-05-04 12:50 13.43157 42.33716 38607 ft 457 kts 321°
2026-05-04 12:50 13.45646 42.31690 38779 ft 458 kts 321°
2026-05-04 12:50 13.48130 42.29668 38950 ft 459 kts 321°
2026-05-04 12:50 13.50640 42.27625 39120 ft 460 kts 321°
2026-05-04 12:51 13.53147 42.25583 39285 ft 461 kts 321°
2026-05-04 12:51 13.55655 42.23539 39446 ft 462 kts 321°
2026-05-04 12:51 13.58183 42.21478 39605 ft 463 kts 321°
2026-05-04 12:51 13.60675 42.19446 39758 ft 464 kts 321°
2026-05-04 12:52 13.63210 42.17379 39908 ft 464 kts 321°
2026-05-04 12:52 13.68282 42.13232 40005 ft 467 kts 321°
2026-05-04 12:53 13.73313 42.09094 40008 ft 467 kts 321°
2026-05-04 12:53 13.78379 42.04923 40009 ft 467 kts 321°
2026-05-04 12:54 13.83453 42.00744 40009 ft 467 kts 321°
2026-05-04 12:54 13.88492 41.96591 40009 ft 467 kts 321°
2026-05-04 12:55 13.93548 41.92422 40009 ft 467 kts 321°
2026-05-04 12:55 13.98622 41.88237 40009 ft 467 kts 321°
2026-05-04 12:56 14.03665 41.84074 40009 ft 467 kts 321°
2026-05-04 12:56 14.08718 41.79901 40009 ft 467 kts 321°
2026-05-04 12:57 14.13767 41.75729 40009 ft 467 kts 321°
2026-05-04 12:57 14.18823 41.71549 40009 ft 467 kts 321°
2026-05-04 12:58 14.23865 41.67377 40009 ft 467 kts 321°
2026-05-04 12:58 14.28924 41.63190 40009 ft 467 kts 321°
2026-05-04 12:59 14.33975 41.59007 40009 ft 467 kts 321°
2026-05-04 12:59 14.39013 41.54831 40009 ft 467 kts 321°
2026-05-04 13:00 14.44066 41.50641 40009 ft 467 kts 321°
2026-05-04 13:00 14.49106 41.46457 40009 ft 467 kts 321°
2026-05-04 13:01 14.54146 41.42272 40009 ft 467 kts 321°
2026-05-04 13:01 14.59186 41.38084 40009 ft 467 kts 321°
2026-05-04 13:02 14.64264 41.33862 40009 ft 467 kts 321°
2026-05-04 13:02 14.69297 41.29675 40009 ft 467 kts 321°
2026-05-04 13:03 14.74324 41.25489 40009 ft 467 kts 321°
2026-05-04 13:03 14.79359 41.21296 40009 ft 467 kts 321°
2026-05-04 13:04 14.84407 41.17090 40009 ft 467 kts 321°
2026-05-04 13:04 14.89442 41.12890 40009 ft 467 kts 321°
2026-05-04 13:05 14.94491 41.08676 40009 ft 467 kts 321°
2026-05-04 13:05 14.99535 41.04464 40009 ft 467 kts 321°
2026-05-04 13:06 15.04552 41.00272 40009 ft 467 kts 321°
2026-05-04 13:06 15.09588 40.96059 40009 ft 467 kts 321°
2026-05-04 13:07 15.14634 40.91834 40009 ft 467 kts 321°
2026-05-04 13:07 15.19668 40.87615 40009 ft 467 kts 321°
2026-05-04 13:08 15.24698 40.83396 40009 ft 467 kts 321°
2026-05-04 13:08 15.29704 40.79196 40009 ft 467 kts 321°
2026-05-04 13:09 15.34749 40.74957 40011 ft 467 kts 321°
2026-05-04 13:09 15.39771 40.70741 40009 ft 467 kts 321°
2026-05-04 13:10 15.44784 40.66530 40009 ft 467 kts 321°
2026-05-04 13:10 15.49831 40.62285 40009 ft 467 kts 321°
2026-05-04 13:11 15.54839 40.58069 40009 ft 467 kts 321°
2026-05-04 13:11 15.59886 40.53817 40009 ft 467 kts 321°
2026-05-04 13:12 15.64906 40.49586 40009 ft 467 kts 321°
2026-05-04 13:12 15.69907 40.45366 40009 ft 467 kts 321°
2026-05-04 13:13 15.74929 40.41127 40009 ft 467 kts 321°
2026-05-04 13:13 15.79934 40.36899 40009 ft 467 kts 321°
2026-05-04 13:14 15.84976 40.32637 40009 ft 467 kts 321°
2026-05-04 13:14 15.89992 40.28394 40009 ft 467 kts 321°
2026-05-04 13:15 15.94977 40.24175 40009 ft 467 kts 321°
2026-05-04 13:15 16.00004 40.19918 40009 ft 467 kts 321°
2026-05-04 13:16 16.05008 40.15678 40009 ft 467 kts 321°
2026-05-04 13:16 16.10037 40.11412 40009 ft 467 kts 321°
2026-05-04 13:17 16.15039 40.07169 40009 ft 467 kts 321°
2026-05-04 13:17 16.20051 40.02913 40009 ft 467 kts 321°
2026-05-04 13:18 16.25072 39.98646 40009 ft 467 kts 321°
2026-05-04 13:18 16.30090 39.94379 40009 ft 467 kts 321°
2026-05-04 13:19 16.35100 39.90116 40009 ft 467 kts 321°
2026-05-04 13:19 16.40115 39.85845 40009 ft 467 kts 321°
2026-05-04 13:20 16.45129 39.81573 40009 ft 467 kts 321°
2026-05-04 13:20 16.50126 39.77311 40009 ft 467 kts 321°
2026-05-04 13:21 16.55129 39.73042 40009 ft 467 kts 321°
2026-05-04 13:21 16.60117 39.68782 40009 ft 467 kts 321°
2026-05-04 13:22 16.65153 39.64479 40009 ft 467 kts 321°
2026-05-04 13:22 16.70162 39.60196 40009 ft 467 kts 321°
2026-05-04 13:23 16.75162 39.55918 40009 ft 467 kts 321°
2026-05-04 13:23 16.80166 39.51633 40009 ft 467 kts 321°
2026-05-04 13:24 16.85176 39.47341 40009 ft 467 kts 321°
2026-05-04 13:24 16.90205 39.43028 40008 ft 467 kts 321°
2026-05-04 13:25 16.97694 39.36600 40008 ft 467 kts 321°
2026-05-04 13:25 17.02702 39.32297 40009 ft 467 kts 320°
2026-05-04 13:26 17.07690 39.28010 40009 ft 467 kts 320°
2026-05-04 13:26 17.12695 39.23704 40009 ft 467 kts 320°
2026-05-04 13:27 17.17677 39.19415 40009 ft 467 kts 320°
2026-05-04 13:27 17.22667 39.15116 40009 ft 467 kts 320°
2026-05-04 13:28 17.27682 39.10790 40009 ft 467 kts 320°
2026-05-04 13:28 17.32667 39.06488 40009 ft 467 kts 320°
2026-05-04 13:29 17.37865 39.02449 40008 ft 467 kts 329°
2026-05-04 13:29 17.43727 38.99651 40008 ft 467 kts 342°
2026-05-04 13:30 17.50059 38.98291 40008 ft 467 kts 355°
2026-05-04 13:30 17.56500 38.98265 40010 ft 467 kts
2026-05-04 13:31 17.62979 38.98535 40009 ft 467 kts
2026-05-04 13:31 17.69471 38.98794 40009 ft 467 kts
2026-05-04 13:32 17.75922 38.99034 40009 ft 467 kts
2026-05-04 13:32 17.82393 38.99269 40009 ft 467 kts
2026-05-04 13:33 17.88834 38.99501 40009 ft 467 kts
2026-05-04 13:33 17.95327 38.99735 40009 ft 467 kts
2026-05-04 13:34 18.01776 38.99968 40009 ft 467 kts
2026-05-04 13:34 18.08233 39.00200 40009 ft 467 kts
2026-05-04 13:35 18.17954 39.00558 40009 ft 467 kts
2026-05-04 13:36 18.24401 39.00908 40009 ft 467 kts
2026-05-04 13:36 18.30872 39.01279 40009 ft 467 kts
2026-05-04 13:37 18.37349 39.01642 40009 ft 467 kts
2026-05-04 13:37 18.43799 39.02000 40009 ft 467 kts
2026-05-04 13:38 18.50301 39.02361 40009 ft 467 kts
2026-05-04 13:38 18.56762 39.02718 40009 ft 467 kts
2026-05-04 13:39 18.63195 39.03074 40009 ft 467 kts
2026-05-04 13:39 18.69656 39.03432 40009 ft 467 kts
2026-05-04 13:40 18.76120 39.03790 40009 ft 467 kts
2026-05-04 13:40 18.82593 39.04150 40009 ft 467 kts
2026-05-04 13:41 18.89046 39.04508 40009 ft 467 kts
2026-05-04 13:41 18.95483 39.04865 40009 ft 467 kts
2026-05-04 13:42 19.05185 39.05368 40008 ft 467 kts
2026-05-04 13:42 19.11650 39.05143 40009 ft 467 kts 355°
2026-05-04 13:43 19.18033 39.04164 39988 ft 467 kts 348°
2026-05-04 13:43 19.21181 39.03398 39640 ft 470 kts 346°
2026-05-04 13:43 19.24356 39.02510 38963 ft 474 kts 345°
2026-05-04 13:44 19.27572 39.01584 38204 ft 478 kts 345°
2026-05-04 13:44 19.30756 39.00664 37512 ft 480 kts 345°
2026-05-04 13:44 19.33970 38.99738 36878 ft 480 kts 345°
2026-05-04 13:44 19.37158 38.98823 36283 ft 479 kts 345°
2026-05-04 13:45 19.40348 38.97910 35664 ft 479 kts 345°
2026-05-04 13:45 19.43593 38.96981 35083 ft 477 kts 345°
2026-05-04 13:45 19.46749 38.96079 34594 ft 473 kts 345°
2026-05-04 13:45 19.49892 38.95181 34133 ft 470 kts 345°
2026-05-04 13:46 19.53054 38.94277 33715 ft 465 kts 345°
2026-05-04 13:46 19.56127 38.93398 33448 ft 457 kts 345°
2026-05-04 13:46 19.59153 38.92533 33105 ft 451 kts 345°
2026-05-04 13:46 19.62161 38.91672 32683 ft 448 kts 345°
2026-05-04 13:47 19.65159 38.90815 32298 ft 444 kts 345°
2026-05-04 13:47 19.68133 38.89963 31929 ft 440 kts 345°
2026-05-04 13:47 19.71064 38.89124 31569 ft 435 kts 345°
2026-05-04 13:47 19.73939 38.88300 31217 ft 431 kts 345°
2026-05-04 13:48 19.76844 38.87468 30857 ft 427 kts 345°
2026-05-04 13:48 19.79684 38.86653 30508 ft 423 kts 345°
2026-05-04 13:48 19.82529 38.85838 30156 ft 419 kts 345°
2026-05-04 13:48 19.85320 38.85036 29808 ft 416 kts 345°
2026-05-04 13:49 19.88062 38.84249 29445 ft 413 kts 345°
2026-05-04 13:49 19.90819 38.83458 28996 ft 412 kts 345°
2026-05-04 13:49 19.93577 38.82666 28579 ft 411 kts 345°
2026-05-04 13:49 19.96344 38.81871 28202 ft 408 kts 345°
2026-05-04 13:50 19.99034 38.81097 27848 ft 405 kts 345°
2026-05-04 13:50 20.01768 38.80312 27497 ft 401 kts 345°
2026-05-04 13:50 20.04422 38.79548 27156 ft 398 kts 345°
2026-05-04 13:50 20.07090 38.78780 26814 ft 395 kts 345°
2026-05-04 13:51 20.09710 38.78026 26477 ft 392 kts 345°
2026-05-04 13:51 20.12323 38.77274 26139 ft 389 kts 345°
2026-05-04 13:51 20.14933 38.76522 25801 ft 386 kts 345°
2026-05-04 13:51 20.17518 38.75777 25464 ft 384 kts 345°
2026-05-04 13:52 20.22591 38.74315 24806 ft 378 kts 345°
2026-05-04 13:52 20.25140 38.73580 24472 ft 376 kts 345°
2026-05-04 13:52 20.27635 38.72860 24143 ft 374 kts 345°
2026-05-04 13:53 20.30123 38.72141 23815 ft 371 kts 345°
2026-05-04 13:53 20.32593 38.71428 23488 ft 369 kts 345°
2026-05-04 13:53 20.35074 38.70712 23158 ft 367 kts 345°
2026-05-04 13:54 20.39937 38.69307 22508 ft 362 kts 345°
2026-05-04 13:54 20.42360 38.68606 22183 ft 360 kts 345°
2026-05-04 13:54 20.47164 38.67216 21537 ft 356 kts 345°
2026-05-04 13:55 20.49547 38.66527 21214 ft 355 kts 345°
2026-05-04 13:55 20.54321 38.65144 20564 ft 351 kts 345°
2026-05-04 13:55 20.56634 38.64475 20250 ft 349 kts 345°
2026-05-04 13:56 20.58962 38.63800 19934 ft 347 kts 345°
2026-05-04 13:56 20.61285 38.63126 19618 ft 345 kts 345°
2026-05-04 13:56 20.65902 38.61787 18990 ft 342 kts 345°
2026-05-04 13:57 20.68190 38.61123 18677 ft 340 kts 345°
2026-05-04 13:57 20.70453 38.60466 18368 ft 338 kts 345°
2026-05-04 13:58 20.77206 38.58505 17439 ft 333 kts 345°
2026-05-04 13:58 20.81684 38.57511 16807 ft 330 kts
2026-05-04 13:58 20.83909 38.58011 16489 ft 328 kts 23°
2026-05-04 13:59 20.85817 38.59300 16162 ft 327 kts 43°
2026-05-04 13:59 20.87181 38.61194 15827 ft 326 kts 63°
2026-05-04 13:59 20.88572 38.65763 15233 ft 322 kts 75°
2026-05-04 14:00 20.89173 38.68082 14931 ft 321 kts 74°
2026-05-04 14:00 20.90386 38.72651 14327 ft 318 kts 74°
2026-05-04 14:00 20.90998 38.74913 14025 ft 317 kts 74°
2026-05-04 14:01 20.91610 38.77164 13723 ft 316 kts 73°
2026-05-04 14:01 20.92226 38.79425 13418 ft 314 kts 73°
2026-05-04 14:01 20.93439 38.83873 12809 ft 312 kts 73°
2026-05-04 14:02 20.94051 38.86116 12501 ft 311 kts 73°
2026-05-04 14:02 20.94651 38.88314 12200 ft 310 kts 73°
2026-05-04 14:02 20.95255 38.90530 11897 ft 309 kts 73°
2026-05-04 14:02 20.95858 38.92746 11596 ft 308 kts 73°
2026-05-04 14:03 20.96469 38.94926 11296 ft 307 kts 72°
2026-05-04 14:03 20.97196 38.97057 11017 ft 306 kts 68°
2026-05-04 14:03 20.98024 38.99164 10729 ft 305 kts 67°
2026-05-04 14:03 20.98859 39.01248 10436 ft 304 kts 66°
2026-05-04 14:04 21.00478 39.05281 10262 ft 285 kts 66°
2026-05-04 14:04 21.01247 39.07201 10230 ft 275 kts 66°
2026-05-04 14:04 21.01998 39.09077 10042 ft 274 kts 66°
2026-05-04 14:05 21.03497 39.12827 9488 ft 274 kts 66°
2026-05-04 14:05 21.04246 39.14701 9225 ft 273 kts 66°
2026-05-04 14:05 21.04981 39.16544 8970 ft 272 kts 66°
2026-05-04 14:06 21.05725 39.18408 8724 ft 270 kts 66°
2026-05-04 14:06 21.06444 39.20213 8706 ft 259 kts 66°
2026-05-04 14:06 21.07140 39.21958 8689 ft 249 kts 66°
2026-05-04 14:06 21.07803 39.23621 8666 ft 240 kts 66°
2026-05-04 14:07 21.08545 39.25218 8621 ft 242 kts 50°
2026-05-04 14:07 21.09870 39.26284 8486 ft 243 kts 18°
2026-05-04 14:07 21.11525 39.26691 8237 ft 243 kts
2026-05-04 14:07 21.13190 39.26986 7993 ft 243 kts
2026-05-04 14:08 21.14853 39.27273 7739 ft 244 kts
2026-05-04 14:08 21.16521 39.27575 7515 ft 244 kts
2026-05-04 14:08 21.18196 39.27890 7286 ft 244 kts 10°
2026-05-04 14:08 21.19867 39.28210 7055 ft 243 kts 10°
2026-05-04 14:09 21.23190 39.28853 6594 ft 243 kts 10°
2026-05-04 14:09 21.24840 39.29172 6363 ft 243 kts 10°
2026-05-04 14:10 21.28178 39.29305 5924 ft 239 kts 344°
2026-05-04 14:10 21.29744 39.28745 5679 ft 236 kts 339°
2026-05-04 14:10 21.31282 39.28117 5444 ft 237 kts 339°
2026-05-04 14:10 21.32819 39.27486 5215 ft 237 kts 339°
2026-05-04 14:11 21.34351 39.26867 4991 ft 238 kts 339°
2026-05-04 14:11 21.37467 39.25628 4538 ft 238 kts 340°
2026-05-04 14:11 21.38994 39.25026 4394 ft 235 kts 340°
2026-05-04 14:12 21.40518 39.24424 4232 ft 232 kts 340°
2026-05-04 14:12 21.42032 39.23827 3985 ft 234 kts 340°
2026-05-04 14:12 21.45071 39.22631 3640 ft 230 kts 340°
2026-05-04 14:13 21.46574 39.22042 3430 ft 230 kts 340°
2026-05-04 14:13 21.48069 39.21456 3309 ft 226 kts 340°
2026-05-04 14:13 21.49550 39.20872 3138 ft 224 kts 340°
2026-05-04 14:13 21.50986 39.20305 3137 ft 221 kts 340°
2026-05-04 14:14 21.52419 39.19739 3036 ft 217 kts 340°
2026-05-04 14:14 21.55236 39.18626 2484 ft 216 kts 340°
2026-05-04 14:14 21.56612 39.18082 2183 ft 203 kts 340°
2026-05-04 14:15 21.59103 39.17099 1700 ft 179 kts 340°
2026-05-04 14:15 21.61296 39.16233 1241 ft 159 kts 340°
2026-05-04 14:16 21.63265 39.15455 834 ft 143 kts 340°
2026-05-04 14:16 21.64189 39.15091 658 ft 143 kts 340°
2026-05-04 14:17 21.66057 39.14351 235 ft 142 kts 340°
2026-05-04 14:17 21.66985 39.13987 83 ft 141 kts 340°
2026-05-04 14:17 21.68460 39.13404 34 ft 66 kts 340°
2026-05-04 14:18 21.68750 39.13290 34 ft 34 kts 340°
2026-05-04 14:18 21.69143 39.13191 34 ft 22 kts
2026-05-04 14:19 21.69304 39.13224 34 ft 0 kts 32°
2026-05-04 14:20 21.69307 39.13227 34 ft 1 kts 35°
2026-05-04 14:21 21.69331 39.13249 34 ft 1 kts 41°
2026-05-04 14:21 21.69335 39.13254 34 ft 1 kts 41°
2026-05-04 14:21 21.69341 39.13259 34 ft 1 kts 41°
2026-05-04 14:21 21.69356 39.13279 34 ft 7 kts 56°
2026-05-04 14:22 21.69386 39.13351 35 ft 11 kts 69°
2026-05-04 14:22 21.69397 39.13383 35 ft 1 kts 69°
2026-05-04 14:22 21.69414 39.13437 35 ft 12 kts 72°
2026-05-04 14:22 21.69386 39.13498 35 ft 12 kts 150°
2026-05-04 14:23 21.69209 39.13571 34 ft 13 kts 163°
2026-05-04 14:23 21.69133 39.13599 34 ft 11 kts 160°
2026-05-04 14:23 21.69054 39.13631 34 ft 12 kts 159°
2026-05-04 14:24 21.69002 39.13686 34 ft 7 kts 120°
2026-05-04 14:24 21.68966 39.13710 34 ft 6 kts 153°
2026-05-04 14:24 21.68949 39.13718 34 ft 0 kts 157°
2026-05-04 14:24 21.68948 39.13718 34 ft 0 kts 157°
2026-05-04 14:25 21.68937 39.13722 34 ft 2 kts 162°
2026-05-04 14:25 21.68862 39.13751 34 ft 9 kts 160°
2026-05-04 14:25 21.68790 39.13779 34 ft 12 kts 159°
2026-05-04 14:26 21.68701 39.13816 34 ft 14 kts 160°
2026-05-04 14:26 21.68599 39.13855 33 ft 16 kts 160°
2026-05-04 14:26 21.68492 39.13897 32 ft 14 kts 159°
2026-05-04 14:26 21.68393 39.13925 31 ft 15 kts 170°
2026-05-04 14:27 21.68314 39.13987 31 ft 15 kts 98°
2026-05-04 14:27 21.68334 39.14093 32 ft 14 kts 71°
2026-05-04 14:27 21.68367 39.14189 34 ft 13 kts 66°
2026-05-04 14:27 21.68402 39.14287 34 ft 14 kts 70°
2026-05-04 14:28 21.68438 39.14391 34 ft 15 kts 70°
2026-05-04 14:28 21.68475 39.14498 34 ft 15 kts 69°
2026-05-04 14:28 21.68489 39.14538 34 ft 0 kts 69°
2026-05-04 14:29 21.68506 39.14587 34 ft 7 kts 69°
2026-05-04 14:29 21.68554 39.14726 35 ft 10 kts 70°
2026-05-04 14:30 21.68579 39.14798 36 ft 10 kts 70°
2026-05-04 14:30 21.68604 39.14871 38 ft 10 kts 70°
2026-05-04 14:30 21.68653 39.15014 41 ft 10 kts 69°
2026-05-04 14:31 21.68677 39.15083 44 ft 9 kts 69°
2026-05-04 14:31 21.68762 39.15136 46 ft 1 kts 333°
2026-05-04 14:32 21.68871 39.15094 45 ft 15 kts 340°
2026-05-04 14:32 21.68979 39.15052 43 ft 17 kts 340°
2026-05-04 14:32 21.69098 39.15005 41 ft 18 kts 340°
2026-05-04 14:32 21.69223 39.14956 40 ft 19 kts 340°
2026-05-04 14:33 21.69350 39.14906 39 ft 19 kts 340°
2026-05-04 14:33 21.69481 39.14853 37 ft 20 kts 339°
2026-05-04 14:33 21.69611 39.14803 38 ft 19 kts 340°
2026-05-04 14:33 21.69739 39.14753 39 ft 19 kts 340°
2026-05-04 14:34 21.69862 39.14704 39 ft 18 kts 339°
2026-05-04 14:34 21.69987 39.14654 38 ft 19 kts 339°
2026-05-04 14:34 21.70114 39.14604 38 ft 19 kts 340°
2026-05-04 14:34 21.70237 39.14556 39 ft 18 kts 340°
2026-05-04 14:35 21.70357 39.14509 40 ft 14 kts 339°
2026-05-04 14:35 21.70449 39.14465 41 ft 13 kts 316°
2026-05-04 14:35 21.70442 39.14398 42 ft 8 kts 242°
2026-05-04 14:35 21.70424 39.14336 44 ft 8 kts 252°
2026-05-04 14:36 21.70387 39.14290 44 ft 9 kts 188°
2026-05-04 14:36 21.70351 39.14305 44 ft 3 kts 153°
2026-05-04 14:36 21.70312 39.14321 44 ft 8 kts 160°
2026-05-04 14:36 21.70244 39.14346 43 ft 12 kts 160°
2026-05-04 14:37 21.70196 39.14352 43 ft 5 kts 208°
2026-05-04 14:37 21.70188 39.14340 44 ft 1 kts 248°
2026-05-04 14:37 21.70178 39.14313 44 ft 6 kts 249°
2026-05-04 14:37 21.70174 39.14301 44 ft 0 kts 249°